Location: Esp�s Alto
(42.4476°N, 0.5876°E)
Time: 11:45:51
(UTC+00:00)

Cosmos 1943 Rocket - Pass Details

Date: 22 October 2019
Orbit: 810 x 845 km, 71.0° (Epoch: 20 November)

Event Time Altitude Azimuth Distance (km) Brightness Sun altitude
Rises 04:45:06 0° 341° (NNW) 3,409 5.2 -17.9°
Reaches altitude 10° 04:47:43 10° 349° (NNW) 2,473 4.5 -17.4°
Maximum altitude 04:53:03 40° 58° (ENE) 1,224 3.5 -16.4°
Drops below altitude 10° 04:58:21 10° 128° (SE) 2,461 5.4 -15.4°
Sets 05:00:56 0° 135° (SE) 3,390 6.1 -14.9°
